Regional Weather Roundup
Issued by NWS Charleston, WV

Home | Current Version | Previous Version | Text Only | Print | Product List | Glossary Off
Versions: 1 2 3 4 5 6 7 8 9 10 11 12 13 14 15 16 17 18 19 20 21 22 23 24 25 26 27

000
ASUS41 KRLX 231310
RWRRLX
West Virginia Regional Weather Roundup
National Weather Service Charleston WV
900 AM EDT SAT SEP 23 2017

Note: "fair" indicates few or no clouds below 12,000 feet with no
significant weather and/or obstructions to visibility.

WVZ003-231400-
Northern Panhandle of West Virginia

CITY           SKY/WX    TMP DP  RH WIND       PRES   REMARKS
WHEELING       SUNNY     64  58  80 E3        30.16R
$$

WVZ009-231400-
Northwest West Virginia

CITY           SKY/WX    TMP DP  RH WIND       PRES   REMARKS
PARKERSBURG    FOG       63  62  97 E3        30.16R VSB 1/16
$$

WVZ006-231400-
Western West Virginia

CITY           SKY/WX    TMP DP  RH WIND       PRES   REMARKS
HUNTINGTON     FOG       65  64  97 CALM      30.12R VSB<1/4
$$

WVZ015-231400-
West Central West Virginia

CITY           SKY/WX    TMP DP  RH WIND       PRES   REMARKS
CHARLESTON     FOG       63  61  93 CALM      30.13R VSB 1
$$

WVZ022-031-231400-
North Central West Virginia

CITY           SKY/WX    TMP DP  RH WIND       PRES   REMARKS
CLARKSBURG     MOSUNNY   62  59  90 CALM      30.15R
MORGANTOWN     SUNNY     65  59  81 CALM      30.17R
$$

WVZ025-035-042-045-231400-
Southern West Virginia

CITY           SKY/WX    TMP DP  RH WIND       PRES   REMARKS
BECKLEY        SUNNY     67  61  81 CALM      30.18R
LOGAN            N/A     66  66 100 CALM      30.14R
BLUEFIELD      SUNNY     63  60  90 E3        30.20R
LEWISBURG      SUNNY     60  58  96 NE5       30.19R
$$

WVZ047-231400-
Northern Mountains of West Virginia

CITY           SKY/WX    TMP DP  RH WIND       PRES   REMARKS
ELKINS         FOG       57  56  96 CALM      30.21R VSB 1/4
$$

WVZ052-231400-
Eastern Panhandle of West Virginia

CITY           SKY/WX    TMP DP  RH WIND       PRES   REMARKS
MARTINSBURG    MOSUNNY   59  57  93 CALM      30.13R
PETERSBURG     PTSUNNY   59  59  99 CALM      30.17R FOG
$$




USA.gov is the U.S. government's official web portal to all federal, state and local government web resources and services.